User: anonymous   Login
Location: Domont
(49.0278°N, 2.3264°E)
Time: 20:46:01
(UTC+00:00)
Language:

PRISM - Orbit

View from above orbital plane
View from above orbital plane
View from above satellite
View from above satellite

Ground track
Ground track

The orbit data is extracted from the following two-line orbital elements,

1 33493U 09002B   22177.48463043  .00003119  00000-0  25637-3 0  9994
2 33493  98.2251 164.5699 0016027 139.6757 220.5656 14.99874122730334
Epoch (UTC): 26 June 2022 11:37:52
Eccentricity: 0.0016027
inclination: 98.2251°
perigee height: 556 km
apogee height: 578 km
right ascension of ascending node: 164.5699°
argument of perigee: 139.6757°
revolutions per day: 14.99874122
mean anomaly at epoch: 220.5656°
orbit number at epoch: 73033

The dashed part of the orbit path shows where the satellite is in the earth's shadow,  

DLR